[[{"header":{"parameterUnit":"m.s-1","parameterCategory":1,"la1":30.2991,"la2":30.254,"lo1":-89.0895,"lo2":-89.0444,"dy":0.0017,"dx":0.0017,"nx":28,"ny":28,"refTime":"2024-12-25T09:00:00:Z","depth":0,"parameterNumber":2,"parameterNumberName":"U-component_of_WINDS"},"data":[0,0,0,0,0,0,0,0,0,0,0,0,0,0,0,0,0,0,0,0,0,0,0,0,0,0,0,0,0,0,0,0,0,0,0,0,0,0,0,0,0,0,0,0,0,0,0,0,0,0,0,0,0,0,0,0,0,0,-5.5545,-5.5545,0,-5.5537,-5.5537,-5.5536,-5.5444,-5.5442,-5.544,-5.5438,-5.5428,-5.543,-5.5432,0,0,0,0,0,0,0,0,0,0,0,0,0,-5.5483,-5.5484,-5.5545,-5.5545,-5.5545,-5.5537,-5.5537,-5.5536,-5.5445,-5.5442,-5.5439,-5.5437,-5.5428,-5.543,-5.5432,0,0,0,0,0,0,0,0,0,0,0,0,0,-5.5496,-5.5485,-5.5545,-5.5498,-5.5494,-5.5537,-5.5537,-5.5536,-5.5445,-5.5442,-5.5439,-5.5435,-5.5427,-5.543,-5.5433,-5.5519,0,0,-5.5441,-5.5442,0,0,0,0,0,0,0,0,-5.5495,-5.5498,-5.5505,-5.5502,-5.5497,-5.5488,-5.5511,-5.5531,-5.5446,-5.5464,-5.5438,-5.5434,-5.5451,-5.5452,-5.5458,-5.5519,-5.5518,-5.5441,-5.5443,-5.5444,-5.5445,0,0,0,0,0,0,0,-5.5494,-5.5498,-5.5542,-5.5506,-5.5501,-5.5478,-5.5476,-5.5514,-5.5477,-5.5462,-5.5455,-5.5456,-5.5448,-5.5455,-5.5457,-5.5518,-5.5441,-5.5444,-5.5446,-5.5447,-5.565,-5.5653,0,0,0,0,0,0,-5.55,-5.5498,-5.5542,-5.5542,-5.5488,-5.5482,-5.548,-5.5494,-5.5476,-5.547,-5.5459,-5.5451,-5.5452,-5.5453,-5.5456,-5.5555,-5.5444,-5.5447,-5.5449,-5.5646,-5.565,-5.5654,0,0,0,0,0,0,-5.5499,-5.5505,-5.5542,-5.5518,-5.5521,-5.5487,-5.5504,-5.5496,-5.5503,-5.5474,-5.5466,-5.5473,-5.5449,-5.5452,-5.5504,-5.5553,-5.5448,-5.5451,-5.5642,-5.5647,-5.5652,-5.5755,0,0,0,0,0,0,-5.5497,-5.5505,-5.5537,-5.5519,-5.5523,-5.5591,-5.5507,-5.5498,-5.5508,-5.5499,-5.5485,-5.5479,-5.5447,-5.55,-5.5507,-5.5555,-5.5453,-5.5637,-5.5644,-5.5651,-5.5747,-5.5763,-5.5777,0,0,0,0,0,-5.5496,-5.5566,-5.5539,-5.5545,-5.5562,-5.5594,-5.5596,-5.5557,-5.5513,-5.5545,-5.5526,-5.548,-5.5548,-5.5506,-5.5513,-5.5563,-5.5634,-5.5642,-5.565,-5.574,-5.576,-5.5777,0,0,0,0,0,0,-5.559,-5.5563,-5.5533,-5.56,-5.56,-5.5578,-5.5617,-5.5579,-5.5592,-5.5582,-5.5534,-5.5532,-5.5591,-5.5583,-5.5537,-5.5646,-5.5583,-5.5593,-5.5649,-5.5667,-5.5682,-5.5682,-5.5455,0,0,0,0,0,-5.5619,-5.5647,-5.5622,-5.5684,-5.5685,-5.5652,-5.5664,-5.5635,-5.5632,-5.5632,-5.5617,-5.5617,-5.5638,-5.5653,-5.567,-5.5746,-5.5741,-5.5784,-5.5799,-5.5812,-5.582,-5.5859,-5.5877,-5.5682,-5.5682,-5.5681,0,0,-5.5679,-5.5667,-5.5688,-5.5702,-5.5699,-5.5729,-5.5652,-5.5687,-5.5708,-5.5637,-5.5684,-5.5674,-5.5671,-5.5735,-5.5763,-5.573,-5.5874,-5.5823,-5.5833,-5.5834,-5.5869,-5.5888,-5.5905,-5.5687,-5.5686,-5.5685,0,0,-5.5801,-5.5797,-5.5847,-5.5845,-5.5841,-5.5819,-5.5832,-5.5816,-5.5806,-5.5854,-5.5801,-5.5826,-5.5864,-5.5863,-5.5868,-5.5994,-5.5951,-5.6001,-5.6079,-5.6117,-5.6133,-5.6146,-5.6189,-5.6205,-5.601,-5.601,-5.6011,0,-5.5875,-5.5918,-5.5878,-5.5916,-5.5923,-5.5862,-5.5912,-5.5913,-5.5915,-5.5922,-5.5886,-5.5932,-5.5925,-5.5988,-5.6019,-5.6026,-5.6037,-5.6001,-5.6134,-5.6147,-5.6159,-5.6199,-5.6216,-5.6016,-5.6016,-5.6015,-5.6014,0,-5.6009,-5.604,-5.6081,-5.6085,-5.6098,-5.6142,-5.6108,-5.6126,-5.6096,-5.6078,-5.6127,-5.6118,-5.6132,-5.6146,-5.6117,-5.6205,-5.6185,-5.6143,-5.6077,-5.6184,-5.6221,-5.6237,-5.6025,-5.6023,-5.6021,-5.6019,0,0,-5.6188,-5.617,-5.6186,-5.6187,-5.6179,-5.6202,-5.6244,-5.6259,-5.6275,-5.6279,-5.6312,-5.6347,-5.6308,-5.6314,-5.6285,-5.6319,-5.6417,-5.6272,-5.6271,-5.6297,-5.6512,-5.6542,-5.656,-5.639,-5.6393,-5.6395,-5.6511,0,-5.6304,-5.6374,-5.634,-5.6414,-5.6441,-5.6385,-5.6421,-5.642,-5.6405,-5.6426,-5.6409,-5.6434,-5.6381,-5.6384,-5.6416,-5.6398,-5.6459,-5.639,-5.6419,-5.6421,-5.6419,-5.658,-5.6611,-5.6721,-5.6526,-5.6528,-5.653,0,-5.6449,-5.646,-5.6537,-5.6524,-5.6535,-5.6568,-5.6579,-5.66,-5.6599,-5.6585,-5.6593,-5.6556,-5.6596,-5.6535,-5.6589,-5.6543,-5.6553,-5.6547,-5.6551,-5.6549,-5.648,-5.6581,-5.6755,-5.6771,-5.6553,-5.6551,-5.6549,0,-5.6569,-5.6604,-5.6654,-5.6657,-5.6644,-5.6669,-5.6665,-5.666,-5.6671,-5.6681,-5.6688,-5.6703,-5.6711,-5.6723,-5.6692,-5.665,-5.675,-5.6686,-5.6739,-5.674,-5.676,-5.6759,-5.6936,-5.6772,-5.6772,-5.6772,-5.6771,0,-5.6701,-5.675,-5.6707,-5.6738,-5.6791,-5.6752,-5.6806,-5.6796,-5.6793,-5.682,-5.6773,-5.68,-5.6758,-5.6781,-5.6757,-5.6805,-5.681,-5.6799,-5.6791,-5.6802,-5.6803,-5.6806,-5.6796,-5.6776,-5.6775,-5.6774,-5.6773,0,-5.6843,-5.6817,-5.6867,-5.6852,-5.6849,-5.6889,-5.6876,-5.6903,-5.6886,-5.6922,-5.6928,-5.69,-5.6925,-5.6896,-5.6918,-5.6902,-5.6967,-5.6949,-5.6967,-5.6961,-5.7015,-5.7009,-5.7198,-5.722,-5.7045,-5.7046,-5.7048,0,-5.6927,-5.6963,-5.6952,-5.6968,-5.6966,-5.6992,-5.7003,-5.6968,-5.6981,-5.6983,-5.7011,-5.7032,-5.7046,-5.7088,-5.707,-5.7087,-5.7068,-5.7133,-5.707,-5.7079,-5.7066,-5.7063,-5.7066,-5.7145,-5.7147,-5.7149,-5.715,0,-5.7079,-5.7065,-5.7083,-5.7098,-5.7113,-5.7123,-5.7129,-5.7145,-5.7107,-5.7126,-5.715,-5.7162,-5.7185,-5.7206,-5.7218,-5.7214,-5.7176,-5.7171,-5.7184,-5.7193,-5.7201,-5.7195,-5.6999,-5.7166,-5.7164,-5.7163,-5.7163,-5.7162,-5.7192,-5.7222,-5.7219,-5.7242,-5.7243,-5.725,-5.7275,-5.7262,-5.7282,-5.7298,-5.7276,-5.7307,-5.7305,-5.7318,-5.7318,-5.7342,-5.7313,-5.7333,-5.7337,-5.7341,-5.7349,-5.72,-5.7344,-5.7344,-5.7343,-5.7343,-5.7342,0,-5.734,-5.7336,-5.7357,-5.7368,-5.7386,-5.735,-5.7356,-5.7373,-5.7401,-5.7403,-5.7418,-5.7447,-5.7468,-5.7453,-5.747,-5.7492,-5.7475,-5.7497,-5.7494,-5.7493,-5.7374,-5.736,-5.7511,-5.7511,-5.7511,-5.7511,-5.7511,-5.7511,-5.7418,-5.7466,-5.7452,-5.75,-5.7495,-5.7525,-5.7531,-5.7538,-5.7539,-5.7574,-5.7591,-5.7581,-5.7576,-5.7593,-5.7611,-5.7606,-5.7613,-5.7642,-5.763,-5.7518,-5.7502,-5.7486,-5.7472,-5.7644,-5.7644,-5.7747,-5.7748,-5.7749]},{"header":{"parameterUnit":"m.s-1","parameterCategory":1,"la1":30.2991,"la2":30.254,"lo1":-89.0895,"lo2":-89.0444,"dy":0.0017,"dx":0.0017,"nx":28,"ny":28,"refTime":"2024-12-25T09:00:00:Z","depth":0,"parameterNumber":3,"parameterNumberName":"V-component_of_WINDS"},"data":[0,0,0,0,0,0,0,0,0,0,0,0,0,0,0,0,0,0,0,0,0,0,0,0,0,0,0,0,0,0,0,0,0,0,0,0,0,0,0,0,0,0,0,0,0,0,0,0,0,0,0,0,0,0,0,0,0,0,1.3971,1.3972,0,1.4025,1.4026,1.4026,1.4018,1.4017,1.4016,1.4015,1.407,1.4072,1.4074,0,0,0,0,0,0,0,0,0,0,0,0,0,1.3863,1.3865,1.3971,1.3972,1.3973,1.4025,1.4026,1.4027,1.4018,1.4017,1.4016,1.4015,1.4069,1.4072,1.4074,0,0,0,0,0,0,0,0,0,0,0,0,0,1.3913,1.3865,1.3971,1.3975,1.3976,1.4025,1.4026,1.4027,1.4018,1.4017,1.4016,1.4014,1.4068,1.4071,1.4075,1.4124,0,0,1.4085,1.4087,0,0,0,0,0,0,0,0,1.391,1.3916,1.3974,1.3975,1.3976,1.4013,1.4007,1.4059,1.4019,1.4002,1.4015,1.4014,1.4052,1.4057,1.407,1.4126,1.4128,1.4086,1.4088,1.4089,1.409,0,0,0,0,0,0,0,1.3906,1.3914,1.3993,1.3974,1.3976,1.3974,1.398,1.4017,1.4034,1.4003,1.4003,1.401,1.4052,1.4066,1.4071,1.4129,1.4085,1.4089,1.4091,1.4092,1.4233,1.4234,0,0,0,0,0,0,1.3902,1.3911,1.3991,1.3994,1.3939,1.3977,1.3984,1.4003,1.4034,1.4037,1.4011,1.4009,1.4061,1.4067,1.4073,1.4135,1.4089,1.4092,1.4094,1.4231,1.4233,1.4235,0,0,0,0,0,0,1.3899,1.3909,1.3989,1.3953,1.3963,1.3981,1.4002,1.4004,1.4019,1.4039,1.4042,1.4022,1.406,1.4068,1.4112,1.4136,1.4094,1.4097,1.4229,1.4231,1.4234,1.4257,0,0,0,0,0,0,1.3896,1.3908,1.3926,1.3953,1.3965,1.4026,1.4004,1.4007,1.4025,1.4023,1.4051,1.4054,1.406,1.4107,1.4115,1.414,1.41,1.4227,1.423,1.4233,1.4255,1.426,1.4265,0,0,0,0,0,1.3892,1.393,1.3927,1.3937,1.3988,1.4028,1.4034,1.4041,1.4027,1.4046,1.406,1.4053,1.4132,1.4111,1.4121,1.4147,1.4225,1.4229,1.4233,1.4252,1.4259,1.4265,0,0,0,0,0,0,1.3904,1.3933,1.3931,1.3977,1.4,1.4026,1.405,1.4048,1.4075,1.4072,1.4079,1.4085,1.4131,1.4143,1.4119,1.4198,1.4177,1.4183,1.4188,1.4195,1.4201,1.4197,1.4103,0,0,0,0,0,1.3912,1.3942,1.3966,1.4005,1.4017,1.4032,1.4049,1.4053,1.4077,1.4086,1.4103,1.4126,1.4157,1.4177,1.4205,1.4256,1.4264,1.428,1.4285,1.4289,1.4295,1.4326,1.4334,1.4247,1.4247,1.4247,0,0,1.3928,1.3948,1.3966,1.4008,1.4026,1.4058,1.404,1.4073,1.4097,1.4091,1.4134,1.4148,1.4175,1.4223,1.4245,1.4235,1.432,1.4294,1.4297,1.43,1.4331,1.4339,1.4346,1.4249,1.4249,1.4249,0,0,1.3976,1.3993,1.4029,1.4048,1.4076,1.4087,1.4096,1.4123,1.4132,1.4176,1.4173,1.4202,1.4253,1.4274,1.4291,1.435,1.4346,1.4359,1.4388,1.4418,1.4425,1.4431,1.4455,1.4463,1.4364,1.4364,1.4364,0,1.3993,1.404,1.4047,1.4083,1.4102,1.4099,1.4137,1.4155,1.4191,1.4205,1.4194,1.4261,1.4279,1.4334,1.4349,1.4362,1.4373,1.4356,1.4423,1.443,1.4435,1.4458,1.4467,1.4366,1.4365,1.4365,1.4365,0,1.4061,1.4095,1.4121,1.4158,1.418,1.4216,1.423,1.4252,1.4254,1.4266,1.4313,1.4334,1.4369,1.4382,1.4384,1.4439,1.4432,1.4422,1.44,1.4445,1.4467,1.4475,1.4368,1.4367,1.4367,1.4366,0,0,1.4115,1.4158,1.4168,1.4186,1.4219,1.4245,1.4282,1.4318,1.4338,1.4363,1.4396,1.4442,1.4434,1.4453,1.4458,1.4484,1.4533,1.4471,1.4472,1.4484,1.4598,1.4607,1.4617,1.4531,1.4532,1.4533,1.4597,0,1.4167,1.4233,1.4243,1.4302,1.4334,1.4334,1.4367,1.4391,1.4404,1.4434,1.4448,1.4482,1.4467,1.4479,1.4506,1.4522,1.4556,1.4517,1.4563,1.4564,1.4557,1.4627,1.4636,1.4694,1.4605,1.4606,1.4607,0,1.4236,1.4266,1.4329,1.4361,1.4375,1.4404,1.4439,1.4467,1.4496,1.4504,1.4527,1.4529,1.457,1.4547,1.4604,1.4577,1.4596,1.4607,1.461,1.4615,1.4589,1.4637,1.4713,1.4723,1.462,1.4619,1.4618,0,1.4273,1.4328,1.4374,1.4389,1.4426,1.4448,1.4464,1.4492,1.4514,1.4544,1.4559,1.4593,1.4613,1.464,1.4652,1.4634,1.4709,1.4686,1.4718,1.4718,1.4735,1.4734,1.4817,1.4744,1.4744,1.4744,1.4744,0,1.433,1.4369,1.4391,1.4419,1.4464,1.4475,1.4519,1.4535,1.456,1.4592,1.4593,1.4624,1.4637,1.467,1.4679,1.4727,1.4735,1.4743,1.4746,1.4744,1.4744,1.4758,1.4755,1.4747,1.4746,1.4746,1.4745,0,1.4378,1.4394,1.4445,1.4477,1.4486,1.4518,1.4546,1.4574,1.4588,1.4629,1.464,1.4661,1.47,1.4715,1.4762,1.4769,1.4825,1.4822,1.4815,1.4816,1.4849,1.4846,1.4945,1.496,1.4876,1.4876,1.4877,0,1.4415,1.4445,1.4482,1.4504,1.4522,1.4557,1.4581,1.4593,1.4618,1.4655,1.4679,1.4718,1.4751,1.4814,1.4834,1.4871,1.4871,1.4903,1.4877,1.4876,1.4875,1.4874,1.4878,1.4909,1.491,1.491,1.4911,0,1.4479,1.4487,1.452,1.4558,1.4586,1.4615,1.4644,1.4662,1.468,1.4707,1.4748,1.4773,1.4823,1.4863,1.4902,1.492,1.4919,1.4919,1.4929,1.4929,1.4924,1.493,1.4831,1.4917,1.4916,1.4916,1.4916,1.4915,1.4524,1.4553,1.4584,1.4622,1.4646,1.4674,1.4703,1.4722,1.4756,1.4799,1.4804,1.4849,1.488,1.4932,1.4952,1.4988,1.4979,1.4992,1.4996,1.5,1.5004,1.4918,1.4994,1.4994,1.4994,1.4994,1.4994,0,1.4591,1.4612,1.4647,1.4689,1.472,1.4717,1.475,1.4776,1.4816,1.4845,1.4877,1.4926,1.4966,1.499,1.5031,1.5055,1.5056,1.5065,1.5065,1.5069,1.5008,1.4996,1.5064,1.5064,1.5064,1.5064,1.5064,1.5064,1.4629,1.4679,1.469,1.4752,1.4773,1.4817,1.4837,1.4863,1.4887,1.4942,1.4975,1.4991,1.502,1.5063,1.51,1.5106,1.5122,1.5132,1.5138,1.508,1.5073,1.5066,1.5056,1.5135,1.5135,1.5197,1.5198,1.5198]}]]